Theta_e
304 304 305 309 321 328 333 335 331 331 333 332 330 334 338 342 345 345 343 339 340 341 341 341 340 336 335 336 335 335 333 334 330 328 328 329 332 333 334 336 336 338 341
302 304 304 306 315 326 331 331 331 327 326 324 337 340 340 340 341 341 340 344 344 341 341 340 341 340 338 336 336 333 332 332 331 329 324 324 328 331 335 336 338 339 340
300 302 303 305 311 319 323 326 322 323 321 318 323 324 324 325 327 327 329 332 334 339 341 342 340 340 341 337 334 334 333 332 333 332 328 322 319 324 327 333 336 331 334
301 302 302 304 310 311 313 316 318 318 319 320 320 318 316 316 320 321 325 327 332 334 336 339 339 338 336 333 337 335 330 331 333 331 334 332 327 322 321 327 329 327 326
303 301 302 307 309 313 314 317 317 320 322 321 319 318 317 318 320 321 320 321 325 332 334 332 333 333 332 330 331 332 333 337 332 331 331 329 331 329 325 321 320 325 325
303 305 308 311 310 311 312 314 316 315 318 318 318 318 317 318 319 320 319 319 320 322 326 329 330 327 325 325 328 329 327 328 330 332 330 329 326 324 321 317 318 319 320
304 306 306 307 308 308 310 311 313 312 312 313 312 312 313 317 319 317 316 316 317 319 322 324 326 327 327 326 326 325 325 326 328 328 325 323 323 326 324 321 317 313 316
300 301 303 305 306 307 308 308 310 310 310 310 310 310 314 314 313 315 315 316 316 319 321 323 324 325 328 329 328 329 329 327 328 329 330 327 326 327 325 319 315 310 313
301 301 303 303 304 305 307 307 306 307 309 310 309 309 312 311 311 312 313 314 316 320 320 320 321 322 324 326 327 328 327 329 330 330 329 326 327 325 324 319 315 314 308
304 302 301 303 304 305 306 306 307 307 307 310 309 309 310 310 310 310 311 312 313 317 316 317 316 317 319 321 322 323 326 329 328 327 326 324 325 321 320 320 318 317 317
309 308 306 303 304 302 302 303 304 306 308 309 308 308 308 309 309 308 309 310 312 314 315 316 316 316 315 315 315 317 320 322 323 321 321 322 324 321 319 319 317 316 315
304 306 306 304 303 301 303 303 304 303 303 304 306 306 306 306 307 308 308 309 311 312 314 315 315 316 316 314 314 316 318 319 319 320 319 320 322 318 317 316 315 317 321
301 300 300 302 302 302 302 302 301 301 302 303 302 301 301 301 302 305 306 306 308 310 310 312 314 315 315 314 314 316 318 319 320 319 320 319 318 316 315 316 317 320 324
299 299 297 297 299 300 300 300 299 300 301 302 301 300 300 301 301 302 303 304 306 306 306 308 313 314 314 314 315 316 316 317 321 320 320 319 318 317 315 316 317 319 320
298 298 297 296 297 297 297 299 298 299 300 300 300 299 300 301 301 302 303 304 305 306 307 307 308 311 313 315 313 313 313 315 317 319 321 321 321 319 316 316 316 319 318
296 297 298 298 297 297 297 298 298 299 299 298 299 300 300 301 301 301 301 301 302 303 303 304 306 305 310 308 307 310 310 312 313 315 318 318 317 316 313 314 315 321 318
296 295 296 295 295 295 297 296 297 297 297 297 299 300 301 301 300 301 301 300 300 300 300 301 302 303 304 303 303 305 308 310 312 313 314 314 320 315 317 312 312 312 312
294 294 294 293 293 294 294 294 296 297 298 297 298 299 299 298 299 299 299 299 300 300 301 301 301 302 302 300 299 302 304 306 309 311 312 311 312 315 319 319 316 315 317
294 293 293 293 292 292 294 296 296 297 297 297 297 297 297 296 296 296 295 296 296 299 300 301 300 299 300 299 298 299 303 305 307 310 312 312 313 309 304 319 317 316 316
294 293 293 293 292 294 294 294 295 295 295 296 297 296 295 296 295 294 297 296 296 299 302 301 300 300 299 298 298 299 303 305 307 309 311 307 310 304 301 316 314 310 307
293 293 292 291 292 294 294 293 294 294 296 295 295 295 294 293 293 293 294 293 294 295 296 300 301 301 301 299 297 297 301 305 308 309 310 314 303 300 299 303 311 309 306
292 292 291 293 294 294 293 292 292 293 293 293 293 292 292 292 293 292 292 293 294 296 297 299 299 300 301 299 298 297 297 302 307 309 311 313 301 299 298 301 299 298 304
291 292 292 292 292 292 292 291 291 291 291 290 289 289 290 291 291 290 290 290 291 291 296 298 298 298 301 302 298 297 296 297 300 311 309 304 298 298 300 299 297 300 309
291 292 291 290 289 291 291 290 291 290 289 288 287 288 288 288 289 290 291 290 291 291 292 295 296 297 298 300 301 299 300 298 301 306 311 306 302 303 304 302 302 308 311
291 291 289 289 289 290 289 289 289 289 287 287 287 286 287 287 288 289 290 290 292 293 293 294 295 295 298 301 299 299 302 303 303 306 310 311 312 310 303 303 304 305 309
290 289 289 288 289 288 288 288 288 288 286 284 285 286 286 287 288 288 289 291 291 292 292 291 292 295 294 295 294 294 295 295 295 305 306 308 310 310 307 306 306 305 306
Wind_Speed
12 9 6 4 6 5 7 9 9 10 8 4 3 2 4 2 3 4 6 8 7 9 9 6 5 5 5 7 7 5 6 6 3 0 3 3 6 6 6 6 5 7 8
7 8 7 7 9 11 12 8 9 7 5 4 4 4 4 3 3 3 3 4 5 6 8 7 8 8 6 8 8 5 5 5 5 5 2 4 5 2 6 6 5 10 3
9 10 8 8 6 9 9 10 10 9 6 5 2 3 4 4 4 4 3 3 4 1 6 7 7 9 9 6 4 3 7 9 5 7 5 2 5 6 1 4 6 8 8
9 11 9 8 10 7 7 7 6 6 3 5 3 3 3 3 1 2 1 3 4 5 3 4 4 5 4 5 9 9 14 15 14 3 6 5 3 1 10 3 1 1 6
9 9 9 8 3 7 7 6 6 5 3 5 6 5 5 3 3 2 2 0 2 4 6 4 4 5 4 6 7 9 10 8 7 4 2 4 3 4 2 7 4 5 8
7 9 8 7 6 6 8 8 9 6 7 7 7 8 8 5 4 2 2 2 2 1 3 5 4 4 5 5 6 6 6 7 6 6 4 4 4 4 5 4 4 9 8
9 11 11 9 8 7 7 7 8 6 6 6 6 6 7 7 7 5 3 2 0 1 4 3 5 5 4 5 6 6 8 9 8 9 6 4 7 7 9 10 6 8 7
9 8 7 8 6 5 3 4 4 4 4 5 6 5 7 5 5 6 4 4 4 4 4 3 3 5 7 7 5 4 6 7 9 14 12 9 7 8 10 11 7 3 5
9 9 8 4 5 3 1 1 1 3 5 6 4 6 4 4 4 6 5 4 4 3 4 4 4 3 5 7 8 6 7 7 9 12 11 9 8 8 11 10 5 8 6
6 7 7 6 6 1 3 3 5 7 7 8 6 5 6 7 6 5 7 7 6 4 5 4 3 3 3 4 5 6 7 8 8 8 11 9 9 10 10 10 8 6 7
10 4 4 3 4 3 5 7 8 7 7 6 5 7 7 8 7 7 7 7 6 7 7 6 5 5 4 5 4 6 7 7 8 8 10 13 14 10 8 7 6 7 6
9 6 3 2 4 6 3 5 5 6 6 6 5 5 6 7 7 7 6 6 8 6 7 7 7 6 6 6 6 6 7 9 10 10 10 14 10 11 7 7 10 9 9
3 4 6 6 5 6 6 6 6 6 5 6 6 6 7 7 7 7 7 6 7 7 7 7 8 8 7 6 6 6 7 9 10 10 10 12 9 8 7 8 8 8 7
5 3 4 4 5 5 5 6 7 6 6 6 6 6 7 6 6 7 7 7 7 7 8 8 9 8 7 7 7 7 6 9 10 10 10 11 11 11 9 9 11 8 6
3 2 3 5 5 6 6 7 7 7 7 7 7 8 8 8 8 8 7 7 7 7 7 6 7 7 6 6 7 7 7 8 10 11 12 13 12 13 10 7 9 10 9
7 7 7 7 7 7 8 10 9 9 7 7 10 10 9 9 10 9 8 8 9 9 8 8 8 8 6 10 11 8 7 8 10 11 12 11 12 15 17 18 15 13 9
7 7 7 7 7 8 9 10 11 8 7 7 9 10 10 11 11 10 11 11 10 10 11 11 10 10 9 12 13 13 7 8 10 12 11 8 7 12 12 15 16 11 12
7 8 7 7 8 7 7 8 7 7 9 11 13 13 14 15 15 16 16 16 14 16 15 16 14 11 9 13 13 14 10 9 11 13 13 10 9 7 12 11 10 12 11
7 8 8 8 8 8 8 9 12 14 15 16 16 16 14 18 19 16 14 18 18 18 17 13 13 11 10 13 14 12 8 10 12 12 13 12 9 12 14 11 11 11 9
8 9 9 8 8 10 8 10 16 16 15 16 16 13 17 16 13 15 17 12 14 14 11 13 12 16 10 12 15 13 6 9 9 9 10 15 11 11 16 14 12 11 9
8 8 8 7 9 11 11 15 16 16 15 17 18 14 15 17 16 15 14 17 15 15 16 16 14 12 9 10 15 16 9 8 8 7 6 6 12 9 16 10 12 12 10
9 8 7 11 13 14 13 16 15 15 18 17 15 17 16 13 12 15 14 14 14 14 14 10 8 8 10 14 14 16 16 13 9 8 5 4 7 3 6 8 5 14 10
7 8 11 16 15 13 13 15 17 17 17 17 17 15 15 14 13 14 14 11 12 11 9 9 8 8 7 8 14 15 15 14 8 7 7 10 12 11 7 5 3 7 6
10 12 14 16 17 14 13 16 17 16 16 17 17 14 13 13 12 11 10 10 9 9 10 8 7 6 8 10 8 7 8 7 6 7 3 3 7 6 8 7 5 3 5
12 13 14 15 18 16 16 14 16 15 15 15 14 14 12 13 12 11 10 9 9 10 9 9 9 9 10 8 9 7 4 4 6 3 3 3 2 1 3 2 4 3 4
14 14 15 17 17 17 16 15 15 13 13 15 12 11 11 10 10 9 10 15 20 19 18 19 12 8 8 10 12 13 12 11 12 5 3 3 1 4 6 6 5 4 5
Wind_Direction
260 249 233 179 150 164 183 183 170 189 161 157 180 182 190 159 198 180 202 211 209 214 215 215 217 193 208 232 217 229 235 254 191 292 281 264 248 253 257 263 261 255 251
257 263 229 187 197 182 194 179 199 174 164 155 168 168 168 184 146 142 150 177 203 206 224 222 226 228 199 223 225 214 254 255 188 202 176 284 290 252 241 254 249 256 261
272 286 263 212 173 176 193 188 183 178 187 173 95 68 59 46 53 31 25 352 352 340 207 217 216 221 228 182 131 327 286 281 277 230 195 277 236 305 11 0 31 29 7
247 249 253 192 194 197 160 164 160 161 161 149 100 92 113 118 160 112 344 338 340 331 341 256 244 230 218 224 202 220 232 237 253 225 229 243 96 280 301 267 331 328 2
289 277 227 201 173 141 134 120 123 113 107 110 117 115 99 113 146 136 139 268 322 324 321 321 250 249 209 236 240 236 234 231 243 236 202 211 170 161 244 267 307 304 271
51 47 38 61 63 95 97 108 118 120 126 127 133 127 131 137 112 95 43 2 341 318 326 321 313 268 255 225 222 234 238 239 224 233 180 168 158 160 232 214 226 246 258
68 79 75 69 59 53 85 107 118 133 149 137 140 148 149 150 151 154 159 159 151 326 327 332 331 315 294 254 240 230 233 234 233 206 206 213 219 203 209 232 206 212 240
12 36 69 103 108 113 104 107 146 161 188 187 191 186 177 169 161 162 175 185 186 188 190 224 274 304 309 305 282 251 247 233 234 242 242 230 224 209 211 220 194 227 237
9 26 18 52 121 105 80 174 194 263 250 252 250 235 222 194 192 191 180 190 200 197 181 184 200 244 279 295 299 293 273 252 240 242 239 223 224 215 213 207 188 197 222
1 31 20 355 345 133 176 225 234 232 240 238 235 241 235 222 221 198 205 209 210 205 213 215 205 231 250 270 289 286 286 287 269 248 243 226 224 214 208 207 207 210 230
304 336 286 207 249 346 354 333 322 309 309 308 283 232 233 227 216 213 222 214 208 205 212 213 226 235 250 272 278 274 274 268 262 241 234 234 228 222 211 197 190 211 202
260 282 338 267 105 88 80 48 13 11 356 330 323 310 325 337 319 294 261 229 220 220 220 214 219 226 232 250 267 270 279 280 273 259 234 235 232 224 209 193 198 206 207
312 49 60 46 29 19 7 351 332 336 337 346 352 341 330 325 309 301 296 289 277 260 244 230 222 221 223 229 251 260 273 276 267 264 251 251 234 216 207 204 207 212 211
60 43 3 355 335 320 310 307 306 289 287 277 269 268 271 269 267 269 270 267 259 247 251 245 242 233 229 225 231 247 264 282 271 263 250 243 230 222 208 205 212 211 196
22 297 272 286 285 286 289 282 277 280 269 268 269 263 263 257 255 254 251 255 257 255 245 243 245 251 241 234 226 235 244 266 278 274 265 255 232 216 199 195 208 217 205
332 333 335 335 327 316 307 301 298 291 277 272 269 272 266 260 253 250 245 242 242 242 240 238 228 230 233 233 240 236 240 248 266 270 271 251 237 225 206 210 208 205 188
326 325 306 288 279 283 301 308 306 306 293 288 295 293 289 284 279 268 263 255 245 241 239 235 233 233 229 225 233 238 234 236 248 262 258 259 241 224 221 217 220 215 210
285 287 289 288 282 282 293 283 269 266 277 281 282 282 281 281 280 276 273 273 273 267 256 247 232 230 231 232 240 243 245 236 236 247 253 248 258 226 215 214 202 209 206
280 277 276 278 284 285 270 276 289 295 291 288 292 291 291 293 281 278 284 281 271 264 256 243 230 226 229 225 246 250 247 245 237 237 240 237 246 258 232 214 208 195 185
273 278 276 272 272 281 284 287 294 293 288 289 292 291 294 283 292 292 286 288 292 294 279 248 241 234 223 224 239 247 247 251 244 238 229 219 223 237 214 206 185 166 166
272 271 274 281 280 287 286 290 294 289 297 299 290 287 288 282 277 277 273 272 271 266 259 265 240 222 212 228 239 247 248 243 248 230 208 214 217 237 193 190 180 167 152
287 290 295 296 298 300 300 293 292 303 299 294 290 291 286 282 279 276 274 275 269 266 253 237 238 234 230 232 244 240 228 236 237 231 213 195 190 222 214 196 193 138 140
293 295 296 300 302 306 296 298 298 301 299 294 291 290 285 279 278 274 271 268 267 266 266 246 232 231 233 238 235 231 239 245 238 239 237 211 165 160 205 162 310 152 135
299 303 301 302 302 302 306 303 300 298 296 293 291 286 283 273 265 261 263 261 261 252 246 264 238 242 255 250 233 232 242 236 232 251 260 265 103 136 146 138 188 233 154
304 309 306 302 303 308 307 300 298 298 293 291 288 283 275 272 272 261 256 255 249 248 256 241 243 242 242 229 214 199 215 198 205 162 22 328 109 65 108 137 193 189 159
310 310 309 307 307 309 305 302 302 299 293 293 291 285 285 281 275 269 271 242 246 253 256 268 263 283 309 280 221 226 238 229 164 189 157 162 188 238 204 194 196 183 168